Theta_e
341 339 337 337 337 339 342 341 338 339 340 340 340 342 343 344 347 350 352 354 359 360 360 360 362 363 363 362 362 361 361 359 359 359 358 358 357 358 357 357 355 352 345 345
343 338 338 338 337 338 338 337 337 338 342 341 343 343 347 350 353 357 358 358 358 357 356 358 361 361 362 363 364 364 364 362 362 362 362 361 358 357 358 356 352 348 339 341
345 338 337 336 338 336 336 335 335 340 347 346 346 349 354 356 356 355 354 355 356 356 357 358 360 362 363 363 365 363 363 362 361 360 360 358 357 354 352 352 351 348 345 342
341 343 339 336 336 336 335 335 336 347 349 350 351 351 352 353 354 354 354 354 354 355 357 355 355 352 347 349 354 355 354 352 351 351 350 349 348 347 344 341 344 347 347 344
341 339 339 337 336 336 336 337 336 343 351 350 352 353 353 354 354 353 352 350 351 353 353 350 351 353 354 347 345 344 345 344 343 341 341 341 337 333 332 331 332 336 341 344
340 339 341 340 338 338 337 338 339 339 350 350 350 355 355 353 352 351 350 350 350 350 350 348 347 345 345 345 344 342 341 340 340 339 341 339 334 329 331 339 340 340 340 341
338 338 337 338 339 338 339 339 341 341 346 348 356 355 353 353 352 351 350 349 350 349 347 346 345 346 345 342 343 340 341 340 340 340 339 335 330 332 335 338 337 338 339 340
340 339 338 337 339 342 341 339 340 343 347 356 355 352 352 351 351 350 351 350 347 347 347 346 346 343 343 342 342 341 341 340 339 337 337 334 327 331 331 330 332 334 333 332
333 336 347 340 339 338 338 341 343 345 351 352 352 351 351 349 348 348 348 348 346 345 345 344 344 342 342 341 341 341 340 338 334 326 334 331 329 332 331 330 329 330 329 329
340 338 341 340 339 336 342 342 342 344 348 349 351 351 350 348 345 344 345 344 344 346 344 344 343 340 341 341 342 340 339 337 334 324 323 324 325 323 323 327 328 327 326 326
340 343 341 338 337 337 339 340 339 342 345 349 351 350 349 346 344 344 343 345 346 343 342 342 340 340 341 340 338 339 335 336 335 332 334 331 328 327 327 326 325 326 326 325
340 344 346 342 338 337 339 339 342 344 344 349 350 349 347 345 344 345 346 344 342 341 342 340 340 340 340 339 337 337 335 334 335 336 334 334 333 331 330 328 328 327 327 327
338 342 340 339 338 338 341 342 345 343 348 351 350 348 347 346 346 346 343 344 343 342 340 339 339 339 338 340 338 338 336 336 335 335 334 333 332 332 331 329 327 324 322 318
341 344 340 337 341 341 344 345 344 348 353 351 348 347 348 348 345 344 343 342 341 340 339 338 337 338 337 337 337 336 334 333 336 334 333 331 330 329 330 329 327 324 322 319
339 342 341 342 343 344 346 345 350 353 351 348 349 349 345 344 344 342 340 338 337 337 336 336 336 337 337 336 336 335 334 334 333 332 330 330 329 326 325 326 326 326 322 314
342 339 336 340 343 346 347 348 352 350 349 349 347 346 346 344 341 338 336 335 335 335 334 334 334 334 335 335 333 332 330 328 329 330 328 327 326 325 322 319 317 317 317 314
347 340 337 340 344 347 348 350 351 350 348 347 346 345 344 340 338 336 336 335 334 331 329 328 327 325 327 328 329 329 328 323 323 322 320 317 316 314 314 314 314 314 315 312
344 346 340 344 347 349 352 352 350 348 346 346 344 342 340 338 336 335 333 331 328 327 327 325 325 326 325 322 321 319 318 316 314 313 313 312 313 313 313 313 313 313 313 312
342 345 342 344 350 352 352 350 348 346 345 344 342 339 338 336 335 333 331 330 329 326 323 321 317 315 309 313 314 313 313 314 314 314 314 313 313 313 312 312 312 313 313 312
342 345 344 352 352 351 349 347 346 344 344 341 339 339 337 335 334 332 331 329 325 322 318 315 315 313 305 310 312 313 313 314 313 313 312 313 312 313 313 313 312 312 312 312
344 346 352 351 350 349 346 345 343 343 341 339 339 337 335 333 331 329 326 323 322 320 315 313 315 313 312 313 314 314 314 313 313 314 314 314 314 313 313 313 313 313 312 313
346 352 351 350 348 346 344 343 342 340 340 339 337 334 332 330 328 326 325 322 319 313 315 314 313 311 310 313 314 314 313 314 314 314 314 314 314 313 313 313 313 313 313 313
349 353 350 348 345 344 343 342 341 340 339 336 333 331 329 328 326 323 321 320 312 313 315 314 307 306 311 314 314 314 313 314 314 314 314 314 313 314 313 313 313 313 313 312
351 348 346 344 343 342 342 340 340 338 335 333 330 328 327 326 323 322 319 313 312 313 314 308 306 307 312 314 314 314 314 314 314 314 314 313 314 313 313 313 313 313 312 312
338 344 344 343 343 341 339 338 336 334 332 330 327 325 322 320 316 315 315 311 310 311 311 306 306 311 314 315 314 314 314 314 314 312 313 313 313 313 313 313 312 312 311 311
343 343 342 341 339 338 336 335 333 332 330 327 325 322 317 315 313 312 311 307 311 313 313 312 312 312 314 314 314 313 312 313 313 313 313 313 313 313 314 313 312 312 312 311
341 341 339 338 337 335 334 333 330 328 326 324 318 315 314 314 313 314 312 312 312 313 315 314 313 313 313 313 312 312 312 313 313 313 313 313 313 313 313 313 313 312 311 309
Wind_Speed
21 15 14 14 15 11 22 17 9 13 19 17 13 13 16 12 12 12 13 15 16 17 14 10 6 4 2 5 6 6 4 10 11 15 17 18 20 19 23 23 20 13 14 25
24 8 2 15 11 10 5 3 8 15 20 18 18 19 20 17 17 17 16 16 15 15 14 10 8 6 5 2 1 6 9 14 14 13 13 15 18 21 18 19 22 25 33 26
11 10 6 5 7 12 9 5 0 7 20 17 14 18 23 20 17 17 16 15 13 12 11 11 8 6 2 2 4 7 8 9 13 13 12 14 18 18 17 17 19 19 23 29
9 14 10 8 9 5 6 10 4 16 16 18 18 21 22 20 18 17 15 13 12 11 10 9 10 6 6 7 3 2 3 3 5 6 8 10 11 11 13 14 14 19 26 28
8 10 9 13 13 15 10 10 3 13 20 23 24 23 20 17 16 16 15 13 13 12 11 12 11 12 13 12 11 10 10 8 8 9 12 12 13 16 17 18 19 21 24 27
9 11 13 13 11 1 6 6 12 11 19 24 23 11 11 17 17 17 15 15 14 13 12 13 13 12 12 11 11 12 11 13 12 10 9 13 18 19 19 15 17 18 18 18
12 10 11 6 19 19 13 6 19 19 22 23 7 19 25 19 17 16 16 16 15 13 13 13 12 10 9 10 12 11 10 10 11 10 10 11 19 22 18 13 12 13 13 12
12 9 12 2 14 18 6 1 15 22 22 30 30 26 22 20 18 17 16 14 12 14 14 12 9 5 10 11 8 7 8 7 8 7 9 14 20 23 25 26 26 22 21 19
7 10 11 17 16 14 12 13 19 23 32 31 28 23 21 19 18 16 15 15 13 13 12 10 9 6 10 10 7 5 6 8 8 10 8 13 15 15 18 23 22 20 20 21
11 11 12 20 16 13 20 20 17 22 28 27 26 23 21 19 18 16 15 14 12 11 12 11 8 8 10 8 8 7 7 8 9 11 12 11 11 16 19 17 16 17 17 16
13 10 15 18 23 17 21 23 21 21 25 28 26 23 21 21 19 17 16 13 11 11 11 10 8 10 7 7 8 4 4 8 6 8 12 13 13 15 15 15 15 13 13 14
6 9 4 16 20 17 23 25 25 26 25 27 27 25 23 22 20 18 16 14 13 12 11 11 7 7 7 5 6 5 7 6 4 3 5 5 8 9 12 11 10 10 10 11
8 7 18 15 19 20 20 22 25 25 27 30 27 25 23 23 21 19 17 14 13 12 11 9 7 5 4 4 3 4 2 1 1 1 3 7 5 4 7 11 13 15 15 16
7 11 15 15 21 16 22 23 25 24 25 26 26 24 23 22 21 19 17 15 14 12 10 8 6 6 4 2 1 2 2 4 6 8 8 7 7 6 6 7 6 13 12 14
8 2 4 9 16 18 25 26 27 26 25 25 25 24 23 25 22 19 17 14 13 11 9 7 5 4 0 3 4 2 4 3 3 3 5 6 6 8 7 7 3 5 7 13
13 10 15 18 19 24 28 27 28 26 27 24 24 23 23 24 23 21 17 15 13 11 9 8 7 7 5 1 2 3 4 1 2 3 5 5 5 5 6 7 7 5 5 12
15 10 16 11 24 26 28 27 29 28 26 25 25 25 26 24 23 20 16 14 14 10 8 7 6 6 6 6 3 3 2 6 4 4 4 3 4 6 5 6 7 8 4 12
13 17 15 16 25 28 30 30 28 27 27 27 28 28 27 25 23 20 17 15 12 10 8 6 4 4 5 8 7 4 3 2 3 3 4 5 5 6 6 6 6 6 7 10
18 23 21 19 33 33 34 30 28 26 28 29 29 27 25 24 23 20 17 14 12 8 7 6 5 3 5 8 8 5 1 2 4 4 3 5 5 5 5 7 6 7 7 8
22 25 24 32 37 40 37 32 30 29 29 29 29 28 26 23 22 20 16 12 10 10 7 7 5 3 5 11 9 4 3 3 3 4 5 5 3 5 5 6 6 7 8 9
28 28 33 46 47 44 38 36 33 31 29 29 29 29 27 24 21 21 19 12 14 11 9 10 7 5 4 7 6 3 3 3 3 3 4 4 5 5 6 6 7 8 11 11
32 29 42 35 49 43 36 33 32 31 30 29 27 27 26 23 20 14 11 11 12 11 11 6 6 10 9 9 4 2 3 2 2 2 3 4 5 6 6 7 9 10 11 12
35 43 42 38 39 38 35 32 32 30 30 30 28 26 22 20 17 14 15 13 12 15 10 9 5 10 14 8 3 3 1 1 2 3 4 5 5 6 8 9 11 11 11 11
40 46 43 38 36 36 34 31 28 28 28 26 24 23 21 17 13 11 13 16 15 15 9 6 8 12 9 8 2 1 1 2 3 4 5 6 7 9 10 11 12 11 13 15
19 23 37 39 37 35 34 32 28 24 22 21 23 20 16 14 14 12 14 17 16 8 9 6 9 12 7 3 2 2 3 3 3 5 4 6 9 10 12 11 11 12 10 9
47 39 39 38 35 36 35 31 29 24 20 18 18 17 14 13 12 14 15 14 17 13 5 3 7 6 3 2 3 4 4 5 6 9 8 9 12 11 11 9 10 10 10 11
39 37 37 36 33 30 26 26 27 25 21 19 21 18 16 14 15 13 12 13 10 10 8 3 1 1 1 4 4 2 3 5 7 7 9 10 11 13 11 9 8 10 14 17
Wind_Direction
300 181 187 176 216 192 170 173 44 134 149 142 135 112 106 101 103 105 86 90 67 66 75 73 52 30 330 272 275 243 277 253 268 252 251 250 250 267 248 246 239 238 312 284
256 269 149 174 173 189 221 1 100 123 115 114 122 129 114 106 98 87 81 79 76 71 68 66 68 56 63 86 209 228 231 231 240 245 239 245 248 246 257 258 254 227 251 247
203 220 197 228 188 170 182 116 82 59 116 117 127 118 111 111 111 106 101 95 90 82 75 77 71 95 85 158 202 223 242 267 273 276 287 289 282 289 279 274 268 259 248 246
218 212 188 206 239 202 185 152 175 119 117 109 108 112 112 117 119 115 110 102 93 85 80 72 69 56 63 68 73 307 306 306 313 320 322 322 324 323 314 310 295 276 263 255
228 236 209 203 212 201 208 135 110 110 115 120 109 107 102 115 119 117 110 104 99 96 86 80 75 71 65 65 63 57 56 47 28 17 14 1 344 336 327 318 302 282 271 275
232 232 232 199 162 141 136 214 160 151 129 135 154 140 129 129 122 113 110 106 104 99 93 84 75 73 63 57 49 47 43 51 40 39 10 349 347 341 332 339 336 326 314 298
198 236 251 217 176 184 211 208 158 155 145 161 111 121 133 129 120 117 113 108 108 103 95 91 81 74 80 64 56 51 61 42 28 36 8 0 18 16 10 2 358 8 359 348
210 197 235 150 185 167 145 251 172 139 139 112 118 125 130 129 126 122 119 112 107 103 101 101 80 61 70 66 69 52 38 16 11 20 51 18 27 38 44 42 43 47 43 41
227 216 131 131 139 157 171 149 137 143 126 130 128 132 132 129 127 124 122 120 116 109 96 82 81 77 67 68 60 61 35 29 42 45 69 56 25 42 34 30 39 48 49 52
236 228 207 160 159 170 137 143 154 152 135 137 137 141 138 134 130 127 125 123 120 119 105 105 102 69 79 72 67 46 65 43 31 62 67 54 56 50 50 59 49 44 44 46
227 215 149 166 156 162 148 153 163 151 144 146 147 146 144 137 135 134 131 130 132 122 113 105 108 103 80 50 55 97 101 90 50 39 35 21 34 40 36 39 43 40 42 39
180 122 293 168 153 162 158 157 152 148 150 146 147 144 143 140 141 140 139 132 130 121 116 106 93 82 70 90 90 71 68 56 76 25 83 5 345 17 25 20 20 16 15 11
191 160 187 174 175 179 156 154 147 149 141 138 141 144 145 140 145 151 132 133 126 128 124 119 109 89 112 85 109 99 112 346 325 356 324 332 322 333 10 32 35 32 29 27
35 29 202 200 166 175 155 152 148 139 137 138 142 145 145 144 142 136 141 140 136 133 128 125 114 101 38 54 46 322 10 39 30 18 17 15 32 18 27 38 29 22 30 38
228 210 192 198 158 170 150 146 144 142 144 144 146 148 148 138 143 143 139 139 134 129 123 123 121 106 150 176 142 197 104 117 9 7 33 34 16 34 20 37 356 357 37 24
299 224 247 188 166 162 152 159 149 150 148 147 149 149 145 144 144 141 144 146 139 136 137 147 163 174 120 158 107 49 14 16 94 353 351 12 12 10 13 2 13 25 329 350
315 257 258 222 161 161 163 156 148 147 149 152 153 150 146 143 140 142 146 150 164 158 159 160 148 128 114 93 85 86 55 31 67 33 21 14 7 13 9 7 9 9 4 18
283 277 254 187 171 162 144 144 148 152 155 157 153 152 149 148 146 146 146 142 135 135 137 146 150 159 163 160 133 78 58 56 39 36 26 32 63 36 32 24 20 14 3 1
268 262 248 243 159 147 147 147 153 154 157 158 154 152 149 151 149 150 147 143 147 146 143 139 124 109 135 139 123 95 102 72 70 64 42 31 45 24 26 15 4 5 354 352
261 255 247 158 149 153 146 152 153 157 160 160 152 151 149 149 151 151 148 137 154 170 135 130 112 101 116 134 111 96 108 90 75 60 63 48 23 17 6 9 -0 350 342 341
244 246 168 159 143 144 146 156 156 159 162 158 155 154 153 153 153 156 162 149 170 162 162 135 143 142 144 122 93 115 111 95 76 58 38 26 8 354 352 346 339 341 337 330
230 178 165 154 134 136 145 150 157 159 157 157 157 159 153 154 149 137 164 177 166 148 113 137 191 168 153 125 108 123 107 88 52 22 5 355 347 339 335 332 328 337 331 336
212 147 135 133 135 140 145 153 155 157 156 162 161 158 151 149 155 155 154 179 156 145 149 209 197 162 150 108 136 128 88 37 356 345 342 337 329 322 325 330 336 330 337 350
149 125 129 135 139 142 146 151 153 156 160 159 154 146 147 146 143 160 174 159 168 162 191 181 151 151 146 122 136 161 290 303 322 328 323 316 321 322 330 329 326 324 321 326
182 140 134 140 143 142 144 146 147 147 144 145 144 141 144 154 166 157 181 175 179 166 187 148 146 153 134 109 225 264 278 279 269 306 332 308 314 317 318 316 324 329 331 333
145 145 144 143 144 144 145 146 141 142 146 149 146 147 150 164 170 162 170 162 158 162 169 82 140 101 88 246 269 285 284 294 283 296 298 308 317 318 312 317 320 319 335 338
134 140 142 138 138 140 144 146 140 137 156 160 150 153 149 158 152 155 153 153 160 158 176 207 282 221 237 275 273 279 269 281 287 287 295 302 318 324 318 317 306 312 325 326